Tracking 35331 objects as of 15-Sep-2026
HD Live streaming from Space Station
objects crossing your sky now

STARLINK-11238

Track STARLINK-11238 now!
10-day predictions
STARLINK-11238 is classified as:


NORAD ID: 60928
Int'l Code: 2024-155E
Launch date: August 31, 2024
Source: United States (US)
Launch site: AIR FORCE WESTERN TEST RANGE (AFWTR)
Your satellite tracking list
Your tracking list is empty




NASA's NSSDC Master Catalog

Two Line Element Set (TLE):
1 60928U 24155E   26257.92469434 -.00000431  00000-0  13025-5 0  9990
2 60928  53.1597 128.4159 0001065  75.1283 284.9853 15.69701982118170
Source of the keplerian elements: AFSPC